Regional Weather Roundup
Issued by NWS

Home | Current Version | Previous Version | Graphics & Text | Print | Product List | Glossary On
Versions: 1 2 3 4 5 6 7 8 9 10 11 12 13 14 15 16 17 18 19 20 21 22 23 24 25 26 27 28 29 30 31 32 33 34 35 36 37 38 39 40 41 42 43 44 45 46 47 48 49 50
000
ASUS45 KABQ 250210
RWRNM
WEATHER ROUNDUP FOR NEW MEXICO
NATIONAL WEATHER SERVICE ALBUQUERQUE NM
800 PM MDT FRI OCT 24 2014

NOTE: "FAIR" MEANS FEW OR NO CLOUDS BELOW 12,000 FEET AGL WITH NO
       SIGNIFICANT WEATHER OR OBSTRUCTIONS TO VISION.

      THIS PRODUCT IS RELEASED AS TWO VERSIONS.  ONE VERSION NEAR
      THE TOP OF THE HOUR CONTAINING PRELIMINARY DATA FROM ALBUQUERQUE
      AND OTHER STATIONS.  A FINAL VERSION WITH ADDITIONAL DATA IS
      ISSUED ABOUT 10 MINUTES AFTER THE HOUR.

NMZ501-503-504-510>518-250300-
NORTHWEST PLATEAU/NORTHCENTRAL MOUNTAINS

CITY           SKY/WX    TMP DP  RH WIND       PRES   REMARKS
FARMINGTON     CLEAR     60  30  32 W5        30.26R
LOS ALAMOS     CLEAR     63  28  27 W5        30.37S
SANTA FE       CLEAR     60  27  28 N6        30.29R
TAOS           CLEAR     52  21  30 E9        30.36R
ANGEL FIRE     FAIR      45  25  44 CALM      30.45R

$$
NMZ402-403-502-505>509-250300-
WESTCENTRAL MOUNTAINS/SOUTHWEST MOUNTAINS

CITY           SKY/WX    TMP DP  RH WIND       PRES   REMARKS
GALLUP         CLEAR     56  33  42 CALM      30.33R
GRANTS         CLEAR     57  21  24 NW6       30.35R
SILVER CITY    CLEAR     63  43  48 CALM      30.29R

$$
NMZ407-409-411-412-250300-
SOUTHERN DESERTS

CITY           SKY/WX    TMP DP  RH WIND       PRES   REMARKS
LORDSBURG      FAIR      64  41  42 S7        30.19R
DEMING         CLEAR     66  44  45 CALM      30.20R
LAS CRUCES     CLEAR     68  48  48 S5        30.23R
HOLLOMAN AFB   PTCLDY    71  47  42 S3        30.18R
T OR C         CLEAR     72  43  35 S8        30.22R

$$
NMZ519>523-250300-
CENTRAL VALLEYS/CENTRAL HIGHLANDS

CITY           SKY/WX    TMP DP  RH WIND       PRES   REMARKS
ALBUQUERQUE    CLEAR     67  34  29 S6        30.25R
DOUBLE EAGLE   CLEAR     59  32  36 W6        30.28R
MORIARTY ARPT  FAIR      55  31  39 CALM      30.31R
CLINES CORNERS CLEAR     56  23  27 W12       30.32R
BELEN          NOT AVBL
SOCORRO        FAIR      67  42  39 SW8       30.23R

$$
NMZ524>526-539-540-250300-
SOUTHCENTRAL MOUNTAINS

CITY           SKY/WX    TMP DP  RH WIND       PRES   REMARKS
RUIDOSO        CLEAR     57  39  51 W9        30.37R

$$
NMZ527>531-250300-
NORTHEAST HIGHLANDS/NORTHEAST PLAINS

CITY           SKY/WX    TMP DP  RH WIND       PRES   REMARKS
LAS VEGAS      CLEAR     62  24  23 NE6       30.30R
RATON          CLEAR     59  28  30 W7        30.27R
CLAYTON        CLEAR     65  32  29 SW8       30.19R

$$
NMZ532>537-250300-
EASTCENTRAL PLAINS

CITY           SKY/WX    TMP DP  RH WIND       PRES   REMARKS
TUCUMCARI      CLEAR     65  40  39 S7        30.12R
CANNON AFB     CLEAR     64  41  44 SW8       30.18R
CLOVIS AIRPORT CLEAR     63  39  42 SW8       30.20R

$$
NMZ028-029-538-250300-
SOUTHEAST PLAINS

CITY           SKY/WX    TMP DP  RH WIND       PRES   REMARKS
ROSWELL        CLEAR     65  56  72 S7        30.14R
CARLSBAD       CLEAR     66  57  72 S9        30.13R
HOBBS          CLEAR     66  46  48 S5        30.18S


$$



USA.gov is the U.S. government's official web portal to all federal, state and local government web resources and services.